Location: A�t Bou Chrif
(32.7193°N, 5.2385°W)
Time: 00:45:44
(UTC+00:00)

Resurs 01 Rocket - Pass Details

Date: 08 August 2020
Orbit: 635 x 644 km, 98.0° (Epoch: 18 September)

Event Time Altitude Azimuth Distance (km) Brightness Sun altitude
Exits shadow 21:05:05 55° 165° (SSE) 765 1.7 -21.7°
Maximum altitude 21:06:02 88° 86° (E) 642 1.5 -21.8°
Drops below altitude 10° 21:10:29 10° 348° (NNW) 2,032 4.9 -22.6°
Sets 21:12:42 0° 349° (NNW) 2,946 5.8 -22.9°
